Regional Weather Roundup
Issued by NWS

Home | Current Version | Previous Version | Text Only | Print | Product List | Glossary Off
Versions: 1 2 3 4 5 6 7 8 9 10 11 12 13 14 15 16 17 18 19 20 21 22 23 24 25 26 27 28 29 30 31 32 33 34 35 36 37 38 39 40 41 42 43 44 45 46 47 48 49 50

013
ASUS43 KMPX 261001
RWRMN
WEATHER ROUNDUP FOR MINNESOTA
NATIONAL WEATHER SERVICE TWIN CITIES/CHANHASSEN MN
500 AM CDT WED JUL 26 2017


NOTE: "FAIR" INDICATES FEW OR NO CLOUDS BELOW 12,000 FEET WITH NO
SIGNIFICANT WEATHER AND/OR OBSTRUCTIONS TO VISIBILITY. N/A MEANS
CURRENT SKY AND/OR WEATHER CONDITIONS ARE NOT AVAILABLE.

MNZ060>063-068>070-261100-
   Twin Cities Metro

CITY           SKY/WX    TMP DP  RH WIND       PRES   REMARKS
TWIN CITIES    LGT RAIN  73  70  90 E6        29.99F
ST PAUL        TSTM      72  72 100 CALM      29.99R FOG
CRYSTAL        RAIN      71  67  87 E3        29.95F
BLAINE         RAIN      73  72  94 SW3       29.98R
LAKEVILLE      CLOUDY    70  70 100 SW5       30.00F
SOUTH ST PAUL  TSTM      71  71  99 N5        29.98R
LAKE ELMO      TSTM      72  70  94 W6G24     30.02R
$$
MNZ001>005-007-008-013>017-022>024-027-028-261100-
   Northwest Minnesota

CITY           SKY/WX    TMP DP  RH WIND       PRES   REMARKS
BEMIDJI        PTCLDY    59  55  87 W5        29.99R
HALLOCK        CLEAR     57  57 100 W5        29.99R
ROSEAU         CLEAR     61  55  82 W8        29.97R
WARROAD        CLEAR     59  55  88 W6        29.96S
CROOKSTON      PTCLDY    59  57  94 CALM      30.00S
FOSSTON        PTCLDY    55  55 100 NW9       29.98F
DETROIT LAKES  MOCLDY    63  57  82 CALM      30.02R
MOORHEAD       CLOUDY    63  57  82 S3        30.01R
PARK RAPIDS    CLOUDY    61  57  87 S7        30.01R
MAHNOMEN       FAIR      59  55  87 SW3       30.00R
$$
MNZ006-009>011-018-025>026-261100-
   North Central Minnesota

CITY           SKY/WX    TMP DP  RH WIND       PRES   REMARKS
BAUDETTE       PTCLDY    59  56  89 W5        29.95R
FLAG ISLAND    CLEAR     63  57  82 W12       29.93R
INTL FALLS     PTCLDY    58  55  90 W5        29.94R
WASKISH        PTCLDY    66  61  82 NW13      29.97R
BIG FORK       FOG       54  52  94 CALM      29.97R VSB 3/4
LONGVILLE      CLOUDY    61  57  88 CALM      29.99R
GRAND RAPIDS   CLOUDY    64  61  90 NW9       29.98R
CRANE LAKE     PTCLDY    57  55  94 CALM      29.94R
ORR            PTCLDY    57  55  94 NW3       29.92S
COOK             N/A     59  57  94 CALM      29.95R
WALKER         FAIR      60  57  89 CALM      29.99R
$$
MNZ012-019>021-037-261100-
   Northeast Minnesota

CITY           SKY/WX    TMP DP  RH WIND       PRES   REMARKS
DULUTH         CLOUDY    65  64  97 NW5       29.94R
ELY            CLOUDY    61  59  94 NW5       29.93S
HIBBING        PTCLDY    59  59 100 CALM      29.95R
EVELETH        CLOUDY    63  57  79 CALM      29.96R
DULUTH HARBOR  CLOUDY    70  66  88 W5        29.92F
TWO HARBORS    CLOUDY    70  64  83 CALM      29.91S
SILVER BAY     CLOUDY    66  63  88 SW3       29.90R
GRAND MARAIS     N/A     64  61  90 SW8       29.85R
G MARAIS ARPRT MOCLDY    61  55  82 NW7       29.91S
$$
MNZ029>031-032-039>041-046>048-054>057-064-261100-
   West Central Minnesota

CITY           SKY/WX    TMP DP  RH WIND       PRES   REMARKS
FERGUS FALLS   CLOUDY    66  57  72 CALM      30.00S
WHEATON        CLOUDY    70  63  78 N7        30.00F
MORRIS         CLOUDY    72  70  94 N6        29.98R
ALEXANDRIA     CLOUDY    69  65  86 N7        30.01F
ELBOW LAKE     FAIR      68  63  83 CALM      30.00F
WADENA         CLOUDY    63  61  94 CALM      30.01S
GLENWOOD       CLOUDY    72  70  94 N9        29.99F
APPLETON       LGT RAIN  72  70  94 CALM      29.98R
BENSON         CLOUDY    70  68  94 CALM      29.98S
ORTONVILLE     CLOUDY    72  70  94 MISG      29.98S FOG
MADISON        CLOUDY    73  73 100 CALM      29.98R
WILLMAR        FAIR      70  70 100 N3        29.97R
$$
MNZ033>034-036-042>043-049>051-058-059-261100-
   Central Minnesota

CITY           SKY/WX    TMP DP  RH WIND       PRES   REMARKS
ST CLOUD       CLOUDY    70  70 100 NW6       29.96F
SAUK CENTRE    PTSUNNY   71  68  91 N8        29.99F
PAYNESVILLE    CLOUDY    71  68  91 N10       29.96F
AITKIN         CLOUDY    66  63  88 NW5       29.97S
PINE RIVER     CLOUDY    64  63  94 CALM      30.03S
BRAINERD       CLOUDY    68  64  87 W5        29.99R
STAPLES        CLOUDY    63  61  94 NW3       29.99F
LONG PRAIRIE   MOCLDY    68  64  88 NW3       30.02F
LITTLE FALLS   CLOUDY    68  64  88 CALM      30.00F
LITCHFIELD     CLOUDY    72  72 100 N7        29.95F
BUFFALO        CLOUDY    70  66  87 CALM      29.98R
MAPLE LAKE     LGT RAIN  71  69  94 CALM      29.97S
HUTCHINSON     PTCLDY    72  70  93 N3        29.96F
$$
MNZ037-044-045-052-053-261100-
   East Central Minnesota

CITY           SKY/WX    TMP DP  RH WIND       PRES   REMARKS
PRINCETON      LGT RAIN  72  70  94 W3        29.98R
MORA           CLOUDY    64  64 100 NW5       29.99R
CAMBRIDGE      LGT RAIN  73  66  78 SW3       29.96R
RUSH CITY      MOCLDY    69  67  94 W5        29.98R
MOOSE LAKE     CLOUDY    63  61  94 CALM      29.92F FOG
HINCKLEY       PTSUNNY   66  66 100 W7        29.97R
CLOQUET        CLOUDY    64  63  94 W5        29.95S FOG
MCGREGOR       CLOUDY    66  63  88 NW5       29.97S
$$
MNZ071>073-080-081-089-090-097-098-261100-
   Southwest Minnesota

CITY           SKY/WX    TMP DP  RH WIND       PRES   REMARKS
MONTEVIDEO     CLOUDY    70  64  83 N5        29.97R
GRANITE FALLS  CLOUDY    71  69  95 W3        29.98R
CANBY          CLOUDY    71  69  94 CALM      29.99S
MARSHALL       CLOUDY    69  68  96 SW5       29.98S
REDWOOD FALLS  CLOUDY    71  68  90 SE8       29.96R
OLIVIA         CLOUDY    70  66  88 N3        29.94F
PIPESTONE      LGT RAIN  70  66  88 CALM      30.01R
WINDOM         LGT RAIN  70  66  88 CALM      29.99R
WORTHINGTON    LGT RAIN  70  68  93 NW5       30.00R
JACKSON        LGT RAIN  70  68  94 CALM      29.99R
TRACY          LGT RAIN  71  70  97 CALM      30.00R
SLAYTON        RAIN      68  65  90 CALM      30.02R
$$
MNZ065>067-074>077-082>085-091>093-261100-
   South Central Minnesota

CITY           SKY/WX    TMP DP  RH WIND       PRES   REMARKS
MANKATO        LGT RAIN  72  71  97 N12       29.97S
NEW ULM        CLOUDY    72  70  94 NE5       29.97F
ST JAMES       CLOUDY    72  70  94 N5        29.99R
FAIRMONT       CLOUDY    76  74  93 NW7       29.97S
GLENCOE        LGT RAIN  71  71 100 SE3       29.98R
FARIBAULT      TSTM      70  68  94 N5        30.02R
OWATONNA       TSTM      73  72  94 N9G24     29.99R
WASECA         TSTM      72  70  94 NW9G20    30.01R
ALBERT LEA     MOCLDY    75  72  88 W3        29.99R
$$
MNZ078>079-086>088-094>096-261100-
   Southeast Minnesota

CITY           SKY/WX    TMP DP  RH WIND       PRES   REMARKS
ROCHESTER      CLOUDY    71  69  93 S9        29.99R
RED WING       TSTM      72  68  88 W14G20    29.99R
STANTON        TSTM      70  66  89 CALM      30.01R
DODGE CENTER   CLOUDY    73  70  88 S7        29.99R THUNDER
WINONA         CLOUDY    73  68  83 CALM      29.98S
AUSTIN         CLOUDY    72  66  83 S3        29.98S
PRESTON        CLOUDY    70  66  88 S9        30.01R
$$
ABBREVIATIONS USED IN REMARKS
   TC - TEMPERATURES IN CELSIUS
  WCI - WIND CHILL INDEX
   HX - HEAT INDEX
  VSB - VISIBILITY
$$




USA.gov is the U.S. government's official web portal to all federal, state and local government web resources and services.